• In Netherlands
  • List of Countries
  • For 7 days
  • Water Temperature
  • Satellite Maps
  • Weather Map
  • Weather Widgets
  • user-avatar
    Login

    Hourly Weather Sydney

    Today, 28 April, Friday

    Time Temperature Precipitation Wind Pressure Humidity
    00:00 +10°C° 0.1 mm 7 mps 763 mmHg 66%
    01:00 +9°C° 0.1 mm 7 mps 763 mmHg 66%
    02:00 +9°C° 0 mm 7 mps 763 mmHg 67%
    03:00 +9°C° 0 mm 7 mps 764 mmHg 68%
    04:00 +8°C° 0 mm 6 mps 764 mmHg 69%
    05:00 +8°C° 0 mm 6 mps 764 mmHg 68%
    06:00 +8°C° 0 mm 6 mps 764 mmHg 68%
    07:00 +7°C° 0 mm 5 mps 765 mmHg 67%
    08:00 +10°C° 0 mm 5 mps 765 mmHg 60%
    09:00 +13°C° 0 mm 5 mps 765 mmHg 54%
    10:00 +18°C° 0 mm 3 mps 765 mmHg 45%
    11:00 +19°C° 0 mm 4 mps 765 mmHg 42%
    12:00 +20°C° 0 mm 4 mps 765 mmHg 39%
    13:00 +21°C° 0 mm 4 mps 764 mmHg 35%
    14:00 +20°C° 0 mm 3 mps 764 mmHg 38%
    15:00 +20°C° 0 mm 3 mps 764 mmHg 41%
    16:00 +20°C° 0 mm 3 mps 764 mmHg 44%
    17:00 +17°C° 0 mm 3 mps 764 mmHg 58%
    18:00 +14°C° 0 mm 2 mps 764 mmHg 73%
    19:00 +10°C° 0 mm 2 mps 765 mmHg 87%
    20:00 +10°C° 0 mm 2 mps 765 mmHg 84%
    21:00 +10°C° 0 mm 2 mps 765 mmHg 82%
    22:00 +10°C° 0 mm 2 mps 765 mmHg 79%
    23:00 +10°C° 0 mm 2 mps 765 mmHg 77%

    Tomorrow, 29 April, Saturday

    Time Temperature Precipitation Wind Pressure Humidity
    00:00 +10°C° 0 mm 2 mps 764 mmHg 74%
    01:00 +10°C° 0 mm 3 mps 764 mmHg 72%
    02:00 +9°C° 0 mm 3 mps 764 mmHg 72%
    03:00 +9°C° 0 mm 3 mps 764 mmHg 71%
    04:00 +8°C° 0 mm 3 mps 764 mmHg 71%
    05:00 +8°C° 0 mm 3 mps 764 mmHg 71%
    06:00 +8°C° 0 mm 3 mps 764 mmHg 72%
    07:00 +8°C° 0 mm 3 mps 764 mmHg 72%
    08:00 +11°C° 0 mm 3 mps 764 mmHg 64%
    09:00 +16°C° 0 mm 3 mps 764 mmHg 55%
    10:00 +19°C° 0 mm 2 mps 764 mmHg 46%
    11:00 +20°C° 0 mm 2 mps 764 mmHg 43%
    12:00 +21°C° 0 mm 2 mps 763 mmHg 39%
    13:00 +24°C° 0 mm 2 mps 763 mmHg 36%
    14:00 +23°C° 0 mm 2 mps 763 mmHg 39%
    15:00 +23°C° 0 mm 2 mps 763 mmHg 42%
    16:00 +21°C° 0 mm 2 mps 763 mmHg 45%
    17:00 +19°C° 0 mm 2 mps 763 mmHg 57%
    18:00 +16°C° 0 mm 3 mps 764 mmHg 68%
    19:00 +12°C° 0 mm 3 mps 764 mmHg 79%
    20:00 +12°C° 0.1 mm 3 mps 764 mmHg 79%
    21:00 +13°C° 0.1 mm 4 mps 765 mmHg 80%
    22:00 +13°C° 0.1 mm 4 mps 765 mmHg 80%
    23:00 +13°C° 0.2 mm 4 mps 765 mmHg 78%

    Day after tomorrow, 30 April, Sunday

    Time Temperature Precipitation Wind Pressure Humidity
    00:00 +14°C° 0.2 mm 5 mps 765 mmHg 77%
    01:00 +14°C° 0.2 mm 5 mps 765 mmHg 76%
    02:00 +14°C° 0.1 mm 5 mps 765 mmHg 78%
    03:00 +13°C° 0.1 mm 5 mps 765 mmHg 80%
    04:00 +13°C° 0.1 mm 5 mps 765 mmHg 83%
    05:00 +12°C° 0.1 mm 5 mps 765 mmHg 84%
    06:00 +12°C° 0.1 mm 5 mps 765 mmHg 86%
    07:00 +11°C° 0.1 mm 4 mps 766 mmHg 88%
    08:00 +14°C° 0.1 mm 4 mps 766 mmHg 78%
    09:00 +17°C° 0.1 mm 4 mps 766 mmHg 69%
    10:00 +20°C° 0.1 mm 4 mps 766 mmHg 59%
    11:00 +20°C° 0.1 mm 4 mps 766 mmHg 60%
    12:00 +21°C° 0.1 mm 4 mps 765 mmHg 61%
    13:00 +21°C° 0.1 mm 3 mps 765 mmHg 63%
    14:00 +21°C° 0 mm 3 mps 765 mmHg 65%
    15:00 +21°C° 0 mm 3 mps 765 mmHg 68%
    16:00 +20°C° 0 mm 2 mps 765 mmHg 70%
    17:00 +18°C° 0 mm 2 mps 765 mmHg 79%
    18:00 +15°C° 0 mm 1 mps 765 mmHg 88%
    19:00 +13°C° 0 mm 1 mps 765 mmHg 97%
    20:00 +13°C° 0 mm 1 mps 766 mmHg 97%
    21:00 +13°C° 0 mm 1 mps 766 mmHg 97%
    22:00 +12°C° 0 mm 1 mps 766 mmHg 97%
    23:00 +12°C° 0 mm 1 mps 766 mmHg 97%

    1 May, Monday

    Time Temperature Precipitation Wind Pressure Humidity
    00:00 +12°C° 0 mm 1 mps 765 mmHg 97%
    01:00 +12°C° 0 mm 1 mps 765 mmHg 97%
    02:00 +12°C° 0 mm 1 mps 765 mmHg 97%
    03:00 +12°C° 0 mm 1 mps 765 mmHg 98%
    04:00 +12°C° 0 mm 1 mps 764 mmHg 98%
    05:00 +12°C° 0 mm 1 mps 765 mmHg 98%
    06:00 +12°C° 0 mm 2 mps 765 mmHg 98%
    07:00 +12°C° 0 mm 2 mps 765 mmHg 98%
    08:00 +15°C° 0 mm 2 mps 765 mmHg 87%
    09:00 +18°C° 0 mm 2 mps 765 mmHg 77%
    10:00 +21°C° 0 mm 3 mps 765 mmHg 66%
    11:00 +22°C° 0 mm 3 mps 764 mmHg 60%
    12:00 +24°C° 0 mm 3 mps 763 mmHg 55%
    13:00 +25°C° 0 mm 4 mps 762 mmHg 49%
    14:00 +25°C° 0 mm 4 mps 762 mmHg 50%
    15:00 +25°C° 0 mm 4 mps 762 mmHg 52%
    16:00 +25°C° 0 mm 4 mps 761 mmHg 53%
    17:00 +22°C° 0 mm 4 mps 761 mmHg 59%
    18:00 +20°C° 0 mm 5 mps 762 mmHg 65%
    19:00 +17°C° 0 mm 5 mps 762 mmHg 71%
    20:00 +16°C° 0 mm 5 mps 762 mmHg 73%
    21:00 +16°C° 0 mm 5 mps 762 mmHg 75%
    22:00 +15°C° 0 mm 5 mps 762 mmHg 77%
    23:00 +14°C° 0 mm 4 mps 762 mmHg 77%

    2 May, Tuesday

    Time Temperature Precipitation Wind Pressure Humidity
    00:00 +14°C° 0 mm 4 mps 762 mmHg 77%
    01:00 +13°C° 0 mm 3 mps 761 mmHg 77%
    02:00 +13°C° 0 mm 3 mps 761 mmHg 77%
    03:00 +13°C° 0 mm 3 mps 761 mmHg 77%
    04:00 +12°C° 0 mm 3 mps 761 mmHg 76%
    05:00 +12°C° 0 mm 3 mps 761 mmHg 76%
    06:00 +12°C° 0 mm 3 mps 761 mmHg 76%
    07:00 +12°C° 0 mm 3 mps 762 mmHg 76%
    08:00 +16°C° 0 mm 2 mps 762 mmHg 65%
    09:00 +19°C° 0 mm 2 mps 762 mmHg 55%
    10:00 +23°C° 0 mm 2 mps 762 mmHg 44%
    11:00 +24°C° 0 mm 2 mps 761 mmHg 40%
    12:00 +26°C° 0 mm 2 mps 761 mmHg 36%
    13:00 +27°C° 0 mm 1 mps 760 mmHg 33%
    14:00 +26°C° 0 mm 2 mps 760 mmHg 39%
    15:00 +24°C° 0 mm 2 mps 760 mmHg 45%
    16:00 +22°C° 0 mm 3 mps 760 mmHg 51%
    17:00 +21°C° 0 mm 3 mps 761 mmHg 57%
    18:00 +20°C° 0 mm 3 mps 761 mmHg 62%
    19:00 +19°C° 0 mm 4 mps 762 mmHg 68%
    20:00 +18°C° 0.4 mm 4 mps 762 mmHg 74%
    21:00 +17°C° 0.4 mm 4 mps 763 mmHg 81%
    22:00 +15°C° 0.4 mm 5 mps 763 mmHg 87%
    23:00 +15°C° 0.4 mm 5 mps 763 mmHg 88%

    3 May, Wednesday

    Time Temperature Precipitation Wind Pressure Humidity
    00:00 +14°C° 0.4 mm 6 mps 763 mmHg 89%
    01:00 +14°C° 0.4 mm 6 mps 763 mmHg 90%
    02:00 +14°C° 0.3 mm 6 mps 763 mmHg 89%
    03:00 +14°C° 0.3 mm 6 mps 763 mmHg 88%
    04:00 +14°C° 0.3 mm 6 mps 764 mmHg 86%
    05:00 +13°C° 0.4 mm 6 mps 764 mmHg 86%
    06:00 +13°C° 0.4 mm 6 mps 765 mmHg 85%
    07:00 +13°C° 0.4 mm 6 mps 765 mmHg 85%
    08:00 +13°C° 0.3 mm 6 mps 765 mmHg 82%
    09:00 +13°C° 0.3 mm 6 mps 766 mmHg 80%
    10:00 +13°C° 0.3 mm 6 mps 766 mmHg 77%
    11:00 +14°C° 0.2 mm 7 mps 766 mmHg 71%
    12:00 +15°C° 0.2 mm 7 mps 766 mmHg 65%
    13:00 +16°C° 0.2 mm 7 mps 766 mmHg 59%
    14:00 +16°C° 0 mm 7 mps 766 mmHg 58%
    15:00 +16°C° 0 mm 7 mps 766 mmHg 57%
    16:00 +16°C° 0 mm 7 mps 766 mmHg 56%
    17:00 +14°C° 0 mm 7 mps 767 mmHg 60%
    18:00 +12°C° 0 mm 7 mps 768 mmHg 64%
    19:00 +11°C° 0 mm 6 mps 769 mmHg 68%
    20:00 +11°C° 0.1 mm 6 mps 769 mmHg 70%
    21:00 +10°C° 0.1 mm 6 mps 769 mmHg 71%
    22:00 +10°C° 0.1 mm 6 mps 770 mmHg 72%
    23:00 +10°C° 0.1 mm 6 mps 770 mmHg 73%
    Show more